Date String (YYYY-MM-DD hh:mm:ss) UTC,Instrument flags,Ambient pressure (hPa),Sample flow (lpm),Bypass flow (lpm),Sample temperature (°C),Ambient temperature (°C),ASC tube jacket temperature (°C),LED temperature (°C),Box temperature (°C),Sample RH (%),Span deviation,Mass concentration (μg/m³),Mass concentration (μg/m³),Mass concentration (μg/m³)
DateTimeUTC,F1_M11,P_M11,Q1_M11,Q2_M11,T1_M11,T2_M11,T3_M11,T4_M11,T5_M11,U1_M11,ZSPAN_M11,X0_M11,X2_M11,X1_M11
2022-11-20 11:00:00,,0827.8,5.01,0.00,22.5,21.9,00.0,31.3,24.4,08.6,0000.0,0005.66,0003.67,0003.42
2022-11-20 11:01:00,,0827.8,4.98,0.00,22.5,21.6,00.0,31.3,24.3,08.6,0000.0,0005.58,0003.67,0003.42
2022-11-20 11:02:00,,0827.8,5.00,0.00,22.4,21.3,00.0,31.3,24.3,08.6,0000.0,0005.58,0003.68,0003.42
2022-11-20 11:03:00,,0827.8,5.00,0.00,22.4,21.2,00.0,31.3,24.2,08.6,0000.0,0005.56,0003.68,0003.43
2022-11-20 11:04:00,,0827.8,5.00,0.00,22.4,21.0,00.0,31.3,24.2,08.5,0000.0,0005.48,0003.66,0003.42
2022-11-20 11:05:00,,0827.8,5.00,0.00,22.3,20.9,00.0,31.3,24.2,08.6,0000.0,0005.45,0003.64,0003.41
2022-11-20 11:06:00,,0827.8,5.02,0.00,22.3,20.8,00.0,31.3,24.2,08.6,0000.0,0005.56,0003.66,0003.42
2022-11-20 11:07:00,,0827.8,4.98,0.00,22.3,20.8,00.0,31.3,24.1,08.6,0000.0,0005.57,0003.65,0003.43
2022-11-20 11:08:00,,0827.8,5.02,0.00,22.3,20.8,00.0,31.3,24.1,08.6,0000.0,0005.83,0003.66,0003.44
2022-11-20 11:09:00,,0827.9,4.98,0.00,22.3,20.8,00.0,31.3,24.0,08.6,0000.0,0005.96,0003.69,0003.46
2022-11-20 11:10:00,,0827.9,5.01,0.00,22.3,20.8,00.0,31.2,24.0,08.7,0000.0,0006.22,0003.73,0003.47
2022-11-20 11:11:00,,0827.9,5.01,0.00,22.2,20.8,00.0,31.2,24.0,08.7,0000.0,0006.25,0003.73,0003.48
2022-11-20 11:12:00,,0827.9,5.00,0.00,22.3,21.5,00.0,31.2,24.1,08.7,0000.0,0006.27,0003.73,0003.49
2022-11-20 11:13:00,,0827.9,5.00,0.00,22.4,22.4,00.0,31.1,24.3,08.7,0000.0,0006.33,0003.73,0003.49
2022-11-20 11:14:00,,0827.9,5.00,0.00,22.5,22.4,00.0,31.2,24.4,08.7,0000.0,0006.37,0003.72,0003.48
2022-11-20 11:15:00,,0827.9,5.00,0.00,22.5,22.1,00.0,31.3,24.4,08.6,0000.0,0006.78,0003.73,0003.49
2022-11-20 11:16:00,,0827.9,5.00,0.00,22.5,21.8,00.0,31.3,24.4,08.6,0000.0,0007.44,0003.75,0003.50
2022-11-20 11:17:00,,0827.9,5.02,0.00,22.5,21.6,00.0,31.3,24.3,08.6,0000.0,0007.38,0003.74,0003.50
2022-11-20 11:18:00,,0827.9,4.98,0.00,22.4,21.4,00.0,31.3,24.3,08.6,0000.0,0007.60,0003.75,0003.50
2022-11-20 11:19:00,,0827.9,5.01,0.00,22.4,21.2,00.0,31.3,24.3,08.6,0000.0,0007.79,0003.75,0003.50
2022-11-20 11:20:00,,0827.9,4.99,0.00,22.4,21.2,00.0,31.3,24.2,08.6,0000.0,0007.68,0003.71,0003.49
2022-11-20 11:21:00,,0827.9,5.01,0.00,22.4,21.1,00.0,31.3,24.2,08.6,0000.0,0007.61,0003.67,0003.48
2022-11-20 11:22:00,,0827.9,5.01,0.00,22.4,21.0,00.0,31.3,24.2,08.6,0000.0,0007.60,0003.67,0003.46
2022-11-20 11:23:00,,0827.9,4.98,0.00,22.3,20.9,00.0,31.3,24.1,08.6,0000.0,0007.58,0003.65,0003.45
2022-11-20 11:24:00,,0827.9,5.00,0.00,22.3,20.9,00.0,31.3,24.1,08.6,0000.0,0007.55,0003.66,0003.43
2022-11-20 11:25:00,,0827.9,5.01,0.00,22.3,20.8,00.0,31.3,24.1,08.7,0000.0,0007.52,0003.65,0003.42
2022-11-20 11:26:00,,0827.9,4.98,0.00,22.3,20.8,00.0,31.3,24.1,08.7,0000.0,0007.19,0003.63,0003.41
2022-11-20 11:27:00,,0828.0,5.01,0.00,22.3,21.1,00.0,31.2,24.1,08.7,0000.0,0006.59,0003.61,0003.40
2022-11-20 11:28:00,,0827.9,5.00,0.00,22.4,22.0,00.0,31.2,24.3,08.7,0000.0,0007.22,0003.60,0003.39
2022-11-20 11:29:00,,0827.9,5.00,0.00,22.5,22.5,00.0,31.2,24.5,08.7,0000.0,0006.87,0003.60,0003.38
2022-11-20 11:30:00,,0828.0,4.99,0.00,22.5,22.2,00.0,31.3,24.5,08.6,0000.0,0006.34,0003.60,0003.37
2022-11-20 11:31:00,,0827.9,5.01,0.00,22.5,21.9,00.0,31.3,24.4,08.6,0000.0,0006.37,0003.59,0003.35
2022-11-20 11:32:00,,0827.9,5.01,0.00,22.5,21.7,00.0,31.3,24.4,08.6,0000.0,0006.25,0003.57,0003.34
2022-11-20 11:33:00,,0828.0,4.98,0.00,22.5,21.4,00.0,31.3,24.3,08.6,0000.0,0006.09,0003.53,0003.32
2022-11-20 11:34:00,,0828.0,5.02,0.00,22.5,21.2,00.0,31.4,24.3,08.6,0000.0,0006.12,0003.51,0003.29
2022-11-20 11:35:00,,0828.0,4.99,0.00,22.4,21.1,00.0,31.3,24.3,08.6,0000.0,0006.01,0003.45,0003.26
2022-11-20 11:36:00,,0828.0,5.01,0.00,22.4,21.0,00.0,31.3,24.2,08.6,0000.0,0006.00,0003.44,0003.22
2022-11-20 11:37:00,,0827.9,5.01,0.00,22.4,20.9,00.0,31.3,24.2,08.6,0000.0,0005.98,0003.43,0003.19
2022-11-20 11:38:00,,0827.9,5.00,0.00,22.4,20.8,00.0,31.3,24.2,08.6,0000.0,0005.90,0003.37,0003.13
2022-11-20 11:39:00,,0828.0,5.00,0.00,22.3,20.8,00.0,31.3,24.1,08.6,0000.0,0005.15,0003.31,0003.03
2022-11-20 11:40:00,,0828.0,5.00,0.00,22.3,20.8,00.0,31.3,24.1,08.6,0000.0,0004.79,0003.22,0002.91
2022-11-20 11:41:00,,0827.9,5.00,0.00,22.3,20.7,00.0,31.3,24.1,08.6,0000.0,0004.64,0003.16,0002.79
2022-11-20 11:42:00,,0828.0,5.00,0.00,22.3,20.8,00.0,31.3,24.1,08.6,0000.0,0004.47,0003.10,0002.70
2022-11-20 11:43:00,,0828.0,5.01,0.00,22.3,21.5,00.0,31.2,24.2,08.6,0000.0,0004.37,0003.03,0002.64
2022-11-20 11:44:00,,0828.1,5.00,0.00,22.4,22.4,00.0,31.2,24.4,08.6,0000.0,0004.40,0003.00,0002.59
2022-11-20 11:45:00,,0828.1,4.98,0.00,22.5,22.4,00.0,31.2,24.5,08.6,0000.0,0004.38,0002.97,0002.55
2022-11-20 11:46:00,,0828.1,5.00,0.00,22.5,22.1,00.0,31.3,24.4,08.6,0000.0,0004.39,0002.97,0002.52
2022-11-20 11:47:00,,0828.0,5.00,0.00,22.5,21.7,00.0,31.3,24.3,08.6,0000.0,0004.31,0002.92,0002.52
2022-11-20 11:48:00,,0828.0,5.00,0.00,22.4,21.5,00.0,31.3,24.3,08.6,0000.0,0004.20,0002.85,0002.49
2022-11-20 11:49:00,,0828.0,5.01,0.00,22.4,21.3,00.0,31.3,24.3,08.5,0000.0,0004.23,0002.88,0002.50
2022-11-20 11:50:00,,0828.0,4.99,0.00,22.4,21.1,00.0,31.3,24.3,08.6,0000.0,0004.25,0002.92,0002.53
2022-11-20 11:51:00,,0828.0,5.01,0.00,22.4,21.0,00.0,31.3,24.2,08.6,0000.0,0004.23,0002.91,0002.52
2022-11-20 11:52:00,,0828.0,4.99,0.00,22.4,20.9,00.0,31.3,24.2,08.6,0000.0,0004.18,0002.88,0002.49
2022-11-20 11:53:00,,0828.1,5.01,0.00,22.3,20.9,00.0,31.3,24.1,08.6,0000.0,0004.82,0002.83,0002.46
2022-11-20 11:54:00,,0828.1,5.01,0.00,22.3,20.9,00.0,31.3,24.1,08.5,0000.0,0005.40,0002.81,0002.42
2022-11-20 11:55:00,,0828.1,4.98,0.00,22.3,20.9,00.0,31.3,24.1,08.6,0000.0,0006.15,0002.75,0002.35
2022-11-20 11:56:00,,0828.1,5.01,0.00,22.3,20.8,00.0,31.3,24.1,08.6,0000.0,0006.39,0002.70,0002.30
2022-11-20 11:57:00,,0828.1,5.01,0.00,22.3,20.7,00.0,31.3,24.1,08.6,0000.0,0006.23,0002.63,0002.26
2022-11-20 11:58:00,,0828.1,4.98,0.00,22.2,20.6,00.0,31.2,24.0,08.6,0000.0,0006.06,0002.56,0002.21
2022-11-20 11:59:00,,0828.1,5.02,0.00,22.3,21.4,00.0,31.2,24.2,08.6,0000.0,0006.01,0002.52,0002.18
